Time,TemperatureF,DewpointF,PressureIn,WindDirection,WindDirectionDegrees,WindSpeedMPH,WindSpeedGustMPH,Humidity,HourlyPrecipIn,Conditions,Clouds,dailyrainin,SoftwareType,DateUTC
2013-05-29 00:11:00,63.2,59.0,30.02,WSW,257,1.0,-999.0,85,-99.99,,,0.00,weatherlink.com 1.10,2013-05-29 04:11:00,
2013-05-29 00:26:00,63.2,59.0,30.02,North,0,0.0,-999.0,86,-99.99,,,0.00,weatherlink.com 1.10,2013-05-29 04:26:00,
2013-05-29 00:41:00,63.2,59.0,30.01,WSW,256,6.0,-999.0,85,-99.99,,,0.00,weatherlink.com 1.10,2013-05-29 04:41:00,
2013-05-29 00:56:00,63.2,59.0,30.00,NNW,329,1.0,-999.0,85,-99.99,,,0.00,weatherlink.com 1.10,2013-05-29 04:56:00,
2013-05-29 01:11:00,62.7,59.0,30.00,SSW,208,0.0,-999.0,86,-99.99,,,0.00,weatherlink.com 1.10,2013-05-29 05:11:00,
2013-05-29 01:26:00,63.1,59.0,30.00,North,359,4.0,-999.0,86,-99.99,,,0.00,weatherlink.com 1.10,2013-05-29 05:26:00,
2013-05-29 01:41:00,63.1,59.0,30.00,West,275,2.0,-999.0,86,-99.99,,,0.00,weatherlink.com 1.10,2013-05-29 05:41:00,
2013-05-29 01:56:00,62.4,59.0,30.00,WSW,257,0.0,-999.0,88,-99.99,,,0.00,weatherlink.com 1.10,2013-05-29 05:56:00,
2013-05-29 02:11:00,62.3,59.0,30.01,NW,315,0.0,-999.0,89,-99.99,,,0.00,weatherlink.com 1.10,2013-05-29 06:11:00,
2013-05-29 02:26:00,61.8,59.0,30.00,NW,316,1.0,-999.0,91,-99.99,,,0.00,weatherlink.com 1.10,2013-05-29 06:26:00,
2013-05-29 02:41:00,61.5,59.0,30.02,NNW,342,0.0,-999.0,92,-99.99,,,0.00,weatherlink.com 1.10,2013-05-29 06:41:00,
2013-05-29 02:56:00,61.5,60.0,30.02,NW,306,0.0,-999.0,93,-99.99,,,0.00,weatherlink.com 1.10,2013-05-29 06:56:00,
2013-05-29 03:11:00,61.3,59.0,30.02,WNW,288,0.0,-999.0,93,-99.99,,,0.00,weatherlink.com 1.10,2013-05-29 07:11:00,
2013-05-29 03:26:00,61.3,59.0,30.03,NNE,14,2.0,-999.0,93,-99.99,,,0.00,weatherlink.com 1.10,2013-05-29 07:26:00,
2013-05-29 03:41:00,61.2,59.0,30.02,NNE,14,0.0,-999.0,93,-99.99,,,0.00,weatherlink.com 1.10,2013-05-29 07:41:00,
2013-05-29 03:56:00,60.5,59.0,30.03,NNE,14,0.0,-999.0,93,-99.99,,,0.00,weatherlink.com 1.10,2013-05-29 07:56:00,
2013-05-29 04:11:00,59.9,58.0,30.03,NNE,14,0.0,-999.0,94,-99.99,,,0.00,weatherlink.com 1.10,2013-05-29 08:11:00,
2013-05-29 04:26:00,59.0,58.0,30.03,NNE,14,0.0,-999.0,95,-99.99,,,0.00,weatherlink.com 1.10,2013-05-29 08:26:00,
2013-05-29 04:41:00,58.3,57.0,30.04,NNE,14,0.0,-999.0,96,-99.99,,,0.00,weatherlink.com 1.10,2013-05-29 08:41:00,
2013-05-29 04:56:00,57.6,57.0,30.06,NNE,14,0.0,-999.0,96,-99.99,,,0.00,weatherlink.com 1.10,2013-05-29 08:56:00,
2013-05-29 05:11:00,57.2,56.0,30.06,NNE,14,0.0,-999.0,97,-99.99,,,0.00,weatherlink.com 1.10,2013-05-29 09:11:00,
2013-05-29 05:26:00,56.9,56.0,30.06,NNE,14,0.0,-999.0,97,-99.99,,,0.00,weatherlink.com 1.10,2013-05-29 09:26:00,
2013-05-29 05:41:00,56.6,56.0,30.06,NNE,14,0.0,-999.0,98,-99.99,,,0.00,weatherlink.com 1.10,2013-05-29 09:41:00,
2013-05-29 05:56:00,56.3,56.0,30.06,NNE,14,0.0,-999.0,98,-99.99,,,0.00,weatherlink.com 1.10,2013-05-29 09:56:00,
2013-05-29 06:11:00,56.2,56.0,30.06,NNE,14,0.0,-999.0,99,-99.99,,,0.00,weatherlink.com 1.10,2013-05-29 10:11:00,
2013-05-29 06:26:00,55.7,56.0,30.08,NNE,14,0.0,-999.0,99,-99.99,,,0.00,weatherlink.com 1.10,2013-05-29 10:26:00,
2013-05-29 06:41:00,56.2,56.0,30.08,NNE,14,0.0,-999.0,100,-99.99,,,0.00,weatherlink.com 1.10,2013-05-29 10:41:00,
2013-05-29 06:56:00,56.6,57.0,30.08,NNE,14,0.0,-999.0,100,-99.99,,,0.00,weatherlink.com 1.10,2013-05-29 10:56:00,
2013-05-29 07:11:00,56.7,57.0,30.09,NNE,14,0.0,-999.0,100,-99.99,,,0.00,weatherlink.com 1.10,2013-05-29 11:11:00,
2013-05-29 07:26:00,57.2,57.0,30.10,NNE,14,0.0,-999.0,100,-99.99,,,0.00,weatherlink.com 1.10,2013-05-29 11:26:00,
2013-05-29 07:41:00,57.6,58.0,30.10,NNE,14,0.0,-999.0,100,-99.99,,,0.00,weatherlink.com 1.10,2013-05-29 11:41:00,
2013-05-29 07:56:00,58.3,58.0,30.10,NNE,14,0.0,-999.0,100,-99.99,,,0.00,weatherlink.com 1.10,2013-05-29 11:56:00,
2013-05-29 08:11:00,59.0,59.0,30.10,NNE,16,0.0,-999.0,100,-99.99,,,0.00,weatherlink.com 1.10,2013-05-29 12:11:00,
2013-05-29 08:26:00,60.1,59.0,30.11,NNE,14,0.0,-999.0,97,-99.99,,,0.00,weatherlink.com 1.10,2013-05-29 12:26:00,
2013-05-29 08:41:00,62.1,60.0,30.11,NNE,14,0.0,-999.0,91,-99.99,,,0.00,weatherlink.com 1.10,2013-05-29 12:41:00,
2013-05-29 08:57:00,63.2,58.0,30.11,ENE,66,0.0,-999.0,83,-99.99,,,0.00,weatherlink.com 1.10,2013-05-29 12:57:00,
2013-05-29 09:12:00,64.7,58.0,30.10,WNW,288,0.0,-999.0,79,-99.99,,,0.00,weatherlink.com 1.10,2013-05-29 13:12:00,
2013-05-29 09:27:00,66.8,58.0,30.10,North,357,0.0,-999.0,74,-99.99,,,0.00,weatherlink.com 1.10,2013-05-29 13:27:00,
2013-05-29 09:42:00,69.6,56.0,30.10,North,0,0.0,-999.0,62,-99.99,,,0.00,weatherlink.com 1.10,2013-05-29 13:42:00,
2013-05-29 09:57:00,72.1,62.0,30.08,NNW,328,0.0,-999.0,71,-99.99,,,0.00,weatherlink.com 1.10,2013-05-29 13:57:00,
2013-05-29 10:12:00,72.8,64.0,30.09,NW,320,0.0,-999.0,74,-99.99,,,0.00,weatherlink.com 1.10,2013-05-29 14:12:00,
2013-05-29 10:27:00,74.6,64.0,30.08,South,179,0.0,-999.0,69,-99.99,,,0.00,weatherlink.com 1.10,2013-05-29 14:27:00,
2013-05-29 10:42:00,76.3,66.0,30.07,North,349,0.0,-999.0,70,-99.99,,,0.00,weatherlink.com 1.10,2013-05-29 14:42:00,
2013-05-29 10:57:00,77.0,65.0,30.07,NW,319,1.0,-999.0,66,-99.99,,,0.00,weatherlink.com 1.10,2013-05-29 14:57:00,
2013-05-29 11:12:00,75.8,64.0,30.08,ESE,119,0.0,-999.0,66,-99.99,,,0.00,weatherlink.com 1.10,2013-05-29 15:12:00,
2013-05-29 11:27:00,75.3,64.0,30.08,NNW,340,2.0,-999.0,69,-99.99,,,0.00,weatherlink.com 1.10,2013-05-29 15:27:00,
2013-05-29 11:42:00,77.2,63.0,30.07,NW,322,0.0,-999.0,62,-99.99,,,0.00,weatherlink.com 1.10,2013-05-29 15:42:00,
2013-05-29 11:57:00,75.4,64.0,30.08,NNW,342,0.0,-999.0,68,-99.99,,,0.00,weatherlink.com 1.10,2013-05-29 15:57:00,
2013-05-29 12:12:00,74.4,64.0,30.09,SSW,209,0.0,-999.0,69,-99.99,,,0.00,weatherlink.com 1.10,2013-05-29 16:12:00,
2013-05-29 12:27:00,73.9,65.0,30.08,West,268,0.0,-999.0,73,-99.99,,,0.00,weatherlink.com 1.10,2013-05-29 16:27:00,
2013-05-29 12:42:00,76.7,64.0,30.07,NNW,328,0.0,-999.0,64,-99.99,,,0.00,weatherlink.com 1.10,2013-05-29 16:42:00,
2013-05-29 12:57:00,77.9,61.0,30.07,SSW,199,0.0,-999.0,57,-99.99,,,0.00,weatherlink.com 1.10,2013-05-29 16:57:00,
2013-05-29 13:12:00,76.5,63.0,30.07,East,85,0.0,-999.0,64,-99.99,,,0.00,weatherlink.com 1.10,2013-05-29 17:12:00,
2013-05-29 13:27:00,77.0,61.0,30.07,North,10,0.0,-999.0,58,-99.99,,,0.00,weatherlink.com 1.10,2013-05-29 17:27:00,
2013-05-29 13:42:00,76.7,61.0,30.07,South,188,0.0,-999.0,58,-99.99,,,0.00,weatherlink.com 1.10,2013-05-29 17:42:00,
2013-05-29 13:57:00,77.4,62.0,30.07,South,185,0.0,-999.0,60,-99.99,,,0.00,weatherlink.com 1.10,2013-05-29 17:57:00,
2013-05-29 14:12:00,77.6,63.0,30.06,North,0,0.0,-999.0,62,-99.99,,,0.00,weatherlink.com 1.10,2013-05-29 18:12:00,
2013-05-29 14:27:00,78.3,61.0,30.07,SE,141,0.0,-999.0,55,-99.99,,,0.00,weatherlink.com 1.10,2013-05-29 18:27:00,
2013-05-29 14:42:00,78.8,61.0,30.06,ESE,106,0.0,-999.0,55,-99.99,,,0.00,weatherlink.com 1.10,2013-05-29 18:42:00,
2013-05-29 14:57:00,78.5,60.0,30.05,SW,234,0.0,-999.0,54,-99.99,,,0.00,weatherlink.com 1.10,2013-05-29 18:57:00,
2013-05-29 15:12:00,77.2,64.0,30.06,ESE,121,0.0,-999.0,63,-99.99,,,0.00,weatherlink.com 1.10,2013-05-29 19:12:00,
2013-05-29 15:27:00,78.3,61.0,30.06,NE,41,0.0,-999.0,55,-99.99,,,0.00,weatherlink.com 1.10,2013-05-29 19:27:00,
2013-05-29 15:42:00,79.6,61.0,30.05,NNW,340,0.0,-999.0,54,-99.99,,,0.00,weatherlink.com 1.10,2013-05-29 19:42:00,
2013-05-29 15:57:00,79.6,62.0,30.05,ENE,73,0.0,-999.0,55,-99.99,,,0.00,weatherlink.com 1.10,2013-05-29 19:57:00,
2013-05-29 16:12:00,79.4,62.0,30.04,WSW,241,0.0,-999.0,55,-99.99,,,0.00,weatherlink.com 1.10,2013-05-29 20:12:00,
2013-05-29 16:27:00,79.2,61.0,30.05,NNE,31,0.0,-999.0,54,-99.99,,,0.00,weatherlink.com 1.10,2013-05-29 20:27:00,
2013-05-29 16:42:00,78.6,62.0,30.04,NW,320,0.0,-999.0,58,-99.99,,,0.00,weatherlink.com 1.10,2013-05-29 20:42:00,
2013-05-29 16:57:00,79.2,63.0,30.04,North,0,2.0,-999.0,57,-99.99,,,0.00,weatherlink.com 1.10,2013-05-29 20:57:00,
2013-05-29 17:12:00,78.8,62.0,30.04,NW,312,0.0,-999.0,56,-99.99,,,0.00,weatherlink.com 1.10,2013-05-29 21:12:00,
2013-05-29 17:27:00,79.2,63.0,30.05,SE,130,0.0,-999.0,58,-99.99,,,0.00,weatherlink.com 1.10,2013-05-29 21:27:00,
2013-05-29 17:42:00,79.0,63.0,30.05,WNW,299,1.0,-999.0,59,-99.99,,,0.00,weatherlink.com 1.10,2013-05-29 21:42:00,
2013-05-29 17:57:00,78.6,62.0,30.05,NW,313,0.0,-999.0,57,-99.99,,,0.00,weatherlink.com 1.10,2013-05-29 21:57:00,
2013-05-29 18:12:00,76.7,62.0,30.05,ESE,112,0.0,-999.0,60,-99.99,,,0.00,weatherlink.com 1.10,2013-05-29 22:12:00,
2013-05-29 18:27:00,74.7,62.0,30.05,WNW,299,1.0,-999.0,64,-99.99,,,0.00,weatherlink.com 1.10,2013-05-29 22:27:00,
2013-05-29 18:42:00,73.2,62.0,30.06,WNW,295,0.0,-999.0,69,-99.99,,,0.00,weatherlink.com 1.10,2013-05-29 22:42:00,
2013-05-29 18:57:00,72.3,61.0,30.06,WNW,285,0.0,-999.0,68,-99.99,,,0.00,weatherlink.com 1.10,2013-05-29 22:57:00,
2013-05-29 19:12:00,72.0,61.0,30.07,NW,315,1.0,-999.0,69,-99.99,,,0.00,weatherlink.com 1.10,2013-05-29 23:12:00,
2013-05-29 19:27:00,71.5,60.0,30.07,ENE,65,0.0,-999.0,68,-99.99,,,0.00,weatherlink.com 1.10,2013-05-29 23:27:00,
2013-05-29 19:42:00,70.6,60.0,30.07,NNE,31,0.0,-999.0,70,-99.99,,,0.00,weatherlink.com 1.10,2013-05-29 23:42:00,
2013-05-29 19:58:00,69.4,60.0,30.08,SW,227,0.0,-999.0,71,-99.99,,,0.00,weatherlink.com 1.10,2013-05-29 23:58:00,
2013-05-29 20:12:00,68.3,59.0,30.09,SW,229,0.0,-999.0,73,-99.99,,,0.00,weatherlink.com 1.10,2013-05-30 00:12:00,
2013-05-29 20:28:00,67.3,58.0,30.07,SSW,208,0.0,-999.0,73,-99.99,,,0.00,weatherlink.com 1.10,2013-05-30 00:28:00,
2013-05-29 20:42:00,66.1,58.0,30.07,SSW,208,0.0,-999.0,76,-99.99,,,0.00,weatherlink.com 1.10,2013-05-30 00:42:00,
2013-05-29 20:58:00,65.2,58.0,30.07,SSW,208,0.0,-999.0,78,-99.99,,,0.00,weatherlink.com 1.10,2013-05-30 00:58:00,
2013-05-29 21:13:00,64.2,58.0,30.08,WNW,285,0.0,-999.0,80,-99.99,,,0.00,weatherlink.com 1.10,2013-05-30 01:13:00,
2013-05-29 21:28:00,63.4,58.0,30.05,WNW,288,0.0,-999.0,81,-99.99,,,0.00,weatherlink.com 1.10,2013-05-30 01:28:00,
2013-05-29 21:43:00,62.9,57.0,30.06,WNW,288,0.0,-999.0,82,-99.99,,,0.00,weatherlink.com 1.10,2013-05-30 01:43:00,
2013-05-29 21:58:00,62.4,58.0,30.07,ENE,76,0.0,-999.0,84,-99.99,,,0.00,weatherlink.com 1.10,2013-05-30 01:58:00,
2013-05-29 22:13:00,62.4,58.0,30.08,ENE,76,0.0,-999.0,84,-99.99,,,0.00,weatherlink.com 1.10,2013-05-30 02:13:00,
2013-05-29 22:28:00,61.8,57.0,30.07,ENE,78,0.0,-999.0,85,-99.99,,,0.00,weatherlink.com 1.10,2013-05-30 02:28:00,
2013-05-29 22:43:00,61.0,57.0,30.08,ENE,78,0.0,-999.0,87,-99.99,,,0.00,weatherlink.com 1.10,2013-05-30 02:43:00,
2013-05-29 22:58:00,60.5,57.0,30.08,ENE,78,0.0,-999.0,88,-99.99,,,0.00,weatherlink.com 1.10,2013-05-30 02:58:00,
2013-05-29 23:13:00,59.9,57.0,30.08,ENE,78,0.0,-999.0,90,-99.99,,,0.00,weatherlink.com 1.10,2013-05-30 03:13:00,
2013-05-29 23:28:00,59.5,57.0,30.09,ENE,78,0.0,-999.0,91,-99.99,,,0.00,weatherlink.com 1.10,2013-05-30 03:28:00,
2013-05-29 23:43:00,59.2,57.0,30.09,ENE,78,0.0,-999.0,92,-99.99,,,0.00,weatherlink.com 1.10,2013-05-30 03:43:00,
2013-05-29 23:58:00,58.9,57.0,30.09,ENE,78,0.0,-999.0,92,-99.99,,,0.00,weatherlink.com 1.10,2013-05-30 03:58:00,